Location: Olmeneta
(45.2333°N, 10.0167°E)
Time: 07:07:14
(UTC+00:00)

Cosmos 2154 Rocket - Pass Details

Date: 03 March 2021
Orbit: 966 x 996 km, 82.9° (Epoch: 10 April)

Event Time Altitude Azimuth Distance (km) Brightness Sun altitude
Rises 17:33:25 0° 167° (SSE) 3,657 6.9 -4.9°
Reaches altitude 10° 17:36:01 10° 162° (SSE) 2,710 6.2 -5.4°
Maximum altitude 17:41:53 47° 90° (E) 1,264 4.2 -6.4°
Drops below altitude 10° 17:47:47 10° 19° (NNE) 2,717 6.1 -7.4°
Sets 17:50:23 0° 14° (NNE) 3,667 6.9 -7.9°
